Wellington, UT

9:28 PM MDT on August 29, 2016 (GMT -0600)
Carbon County

Weather History for KPUC - September, 2013

Change the Weather History Date:

Wednesday, September 4, 2013

  Actual Average Record
Temperature  
Mean Temperature 76 °F -  
Max Temperature 90 °F 77 °F 93 °F (2010)
Min Temperature 62 °F 50 °F 41 °F (1971)
Cooling Degree Days 11    
Growing Degree Days 26 (Base 50)    
Moisture  
Dew Point 48 °F    
Average Humidity 40    
Maximum Humidity 67    
Minimum Humidity 19    
Precipitation  
Precipitation 0.00 in - - ()
Sea Level Pressure  
Sea Level Pressure 29.99 in    
Wind  
Wind Speed 6 mph (NNW)    
Max Wind Speed 21 mph    
Max Gust Speed 31 mph    
Visibility 10 miles    
Events      
Averages and records for this station are not official NWS values.
T = Trace of Precipitation, MM = Missing Value Source: NWS Daily Summary

Daily Weather History Graph

Daily Weather History Graph

Search for Another Location

Airport or City:

Trip Planner

Search our weather history database for the weather conditions in past years. The results will help you decide how hot, cold, wet, or windy it might be!

Date:

Astronomy

Sep. 04, 2013 Rise Set
Actual Time 6:54 AM MDT 7:48 PM MDT
Civil Twilight 6:26 AM MDT 8:16 PM MDT
Nautical Twilight 5:54 AM MDT 8:48 PM MDT
Astronomical Twilight 5:20 AM MDT 9:22 PM MDT
Moon 6:09 AM MDT (9/4) 7:10 PM MDT (9/4)
Length of Visible Light 13h 49m
Length of Day
12h 54m
Waning Crescent, 1% of the Moon is Illuminated
Sep 4
Waning Crescent
Sep 5
New
Sep 12
First Quarter
Sep 19
Full
Sep 26
Last Quarter

Hourly Weather History & Observations

Time (MDT) Temp. Dew Point Humidity Pressure Visibility Wind Dir Wind Speed Gust Speed Precip Events Conditions
12:53 AM 68.0 °F 51.1 °F 55% 29.97 in 10.0 mi NNE 8.1 mph - N/A   Clear
1:53 AM 66.9 °F 52.0 °F 59% 29.96 in 10.0 mi NE 3.5 mph - N/A   Clear
2:53 AM 66.0 °F 52.0 °F 60% 29.96 in 10.0 mi ENE 3.5 mph - N/A   Clear
3:53 AM 64.0 °F 52.0 °F 65% 29.97 in 10.0 mi NE 4.6 mph - N/A   Clear
4:53 AM 64.0 °F 51.1 °F 63% 29.98 in 10.0 mi NNE 6.9 mph - N/A   Clear
5:53 AM 63.0 °F 52.0 °F 67% 30.00 in 10.0 mi Calm Calm - N/A   Clear
6:53 AM 62.1 °F 51.1 °F 67% 30.04 in 10.0 mi Calm Calm - N/A   Clear
7:53 AM 68.0 °F 52.0 °F 56% 30.04 in 10.0 mi East 3.5 mph - N/A   Clear
8:53 AM 72.0 °F 52.0 °F 49% 30.04 in 10.0 mi Calm Calm - N/A   Clear
9:53 AM 75.9 °F 53.1 °F 45% 30.04 in 10.0 mi South 3.5 mph - N/A   Clear
10:53 AM 79.0 °F 51.1 °F 38% 30.05 in 10.0 mi SSE 3.5 mph - N/A   Clear
11:53 AM 82.0 °F 48.0 °F 30% 30.04 in 10.0 mi Calm Calm - N/A   Clear
12:53 PM 86.0 °F 45.0 °F 24% 30.00 in 10.0 mi South 9.2 mph - N/A   Clear
1:53 PM 86.0 °F 39.9 °F 20% 29.99 in 10.0 mi WSW 5.8 mph - N/A   Clear
2:53 PM 88.0 °F 42.1 °F 20% 29.97 in 10.0 mi WSW 5.8 mph - N/A   Clear
3:53 PM 90.0 °F 43.0 °F 19% 29.95 in 10.0 mi Variable 4.6 mph - N/A   Clear
4:34 PM 84.2 °F 46.4 °F 27% 30.24 in 10.0 mi West 19.6 mph 28.8 mph N/A   Clear
4:53 PM 84.9 °F 46.0 °F 26% 29.96 in 10.0 mi West 20.7 mph 31.1 mph N/A   Clear
5:53 PM 87.1 °F 45.0 °F 23% 29.93 in 10.0 mi WNW 10.4 mph 19.6 mph N/A   Clear
6:53 PM 84.0 °F 44.1 °F 25% 29.95 in 10.0 mi WNW 8.1 mph - N/A   Clear
7:53 PM 80.1 °F 46.9 °F 31% 29.95 in 10.0 mi NNW 9.2 mph - N/A   Clear
8:53 PM 73.9 °F 46.9 °F 38% 29.98 in 10.0 mi North 4.6 mph - N/A   Clear
9:53 PM 73.9 °F 45.0 °F 35% 29.96 in 10.0 mi NNW 8.1 mph - N/A   Clear
10:53 PM 75.0 °F 43.0 °F 32% 29.95 in 10.0 mi NNW 8.1 mph - N/A   Clear
11:53 PM 73.0 °F 45.0 °F 37% 29.94 in 10.0 mi North 3.5 mph - N/A   Clear